Location: Pitton
(51.0667°N, 1.7000°W)
Time: 23:36:28
(UTC+00:00)

COSMOS 2428 - Pass Details

Date: 17 September 2019
Orbit: 845 x 856 km, 70.9° (Epoch: 22 October)

Event Time Altitude Azimuth Distance (km) Brightness Sun altitude
Rises 18:48:36 0° 330° (NNW) 3,418 6.5 -5.7°
Reaches altitude 10° 18:51:04 10° 332° (NNW) 2,479 5.7 -6.1°
Maximum altitude 18:56:45 76° 58° (ENE) 878 2.7 -7.0°
Drops below altitude 10° 19:02:26 10° 145° (SE) 2,466 4.7 -7.8°
Sets 19:04:52 0° 147° (SSE) 3,399 5.4 -8.2°
Enters shadow 19:04:55 - 147° (SSE) 3,413 5.4 -8.2°
